TimeEST,TemperatureF,Dew PointF,Humidity,Sea Level PressureIn,VisibilityMPH,Wind Direction,Wind SpeedMPH,Gust SpeedMPH,PrecipitationIn,Events,Conditions,WindDirDegrees,DateUTC
12:15 AM,44.2,28.0,53,29.75,10.0,South,4.6,-,N/A,,Mostly Cloudy,180,2013-02-19 05:15:00
12:36 AM,44.8,27.9,52,29.75,10.0,South,8.1,-,N/A,,Overcast,170,2013-02-19 05:36:00
12:55 AM,44.6,28.0,52,29.74,10.0,SSE,6.9,-,N/A,,Overcast,160,2013-02-19 05:55:00
1:08 AM,44.4,28.0,53,29.75,10.0,South,5.8,-,N/A,,Overcast,170,2013-02-19 06:08:00
1:25 AM,44.6,28.4,53,29.75,10.0,South,9.2,25.3,N/A,,Overcast,180,2013-02-19 06:25:00
1:45 AM,44.6,32.0,61,29.74,10.0,SSW,19.6,29.9,N/A,,Overcast,210,2013-02-19 06:45:00
2:05 AM,42.8,33.8,70,29.73,7.0,South,10.4,27.6,N/A,,Overcast,190,2013-02-19 07:05:00
2:25 AM,42.8,33.8,70,29.73,10.0,South,13.8,25.3,N/A,,Overcast,190,2013-02-19 07:25:00
2:45 AM,41.0,33.8,76,29.72,10.0,South,11.5,25.3,N/A,,Overcast,190,2013-02-19 07:45:00
3:05 AM,39.2,35.6,87,29.70,10.0,South,9.2,18.4,N/A,,Overcast,170,2013-02-19 08:05:00
3:25 AM,39.2,35.6,87,29.69,10.0,South,9.2,20.7,N/A,,Overcast,180,2013-02-19 08:25:00
3:45 AM,39.2,35.6,87,29.68,10.0,SSE,11.5,21.9,N/A,,Overcast,160,2013-02-19 08:45:00
4:05 AM,39.2,33.8,81,29.65,10.0,SSE,9.2,19.6,N/A,,Overcast,160,2013-02-19 09:05:00
4:25 AM,39.2,33.8,81,29.65,10.0,South,8.1,17.3,N/A,,Overcast,180,2013-02-19 09:25:00
4:45 AM,39.2,33.8,81,29.65,10.0,South,9.2,20.7,N/A,,Overcast,180,2013-02-19 09:45:00
5:05 AM,37.4,35.6,93,29.64,10.0,SSE,9.2,19.6,N/A,,Overcast,160,2013-02-19 10:05:00
5:25 AM,37.4,35.6,93,29.63,10.0,South,12.7,18.4,N/A,,Overcast,180,2013-02-19 10:25:00
5:45 AM,37.4,37.4,100,29.63,10.0,South,9.2,20.7,N/A,,Overcast,170,2013-02-19 10:45:00
6:05 AM,39.2,39.2,100,29.61,10.0,South,11.5,17.3,N/A,,Overcast,180,2013-02-19 11:05:00
6:25 AM,39.2,37.4,93,29.61,10.0,South,11.5,19.6,N/A,,Overcast,180,2013-02-19 11:25:00
6:45 AM,39.2,37.4,93,29.61,7.0,South,10.4,17.3,N/A,,Overcast,180,2013-02-19 11:45:00
7:05 AM,39.2,37.4,93,29.60,7.0,South,9.2,19.6,N/A,,Overcast,180,2013-02-19 12:05:00
7:25 AM,39.2,37.4,93,29.60,10.0,South,11.5,21.9,N/A,,Overcast,190,2013-02-19 12:25:00
7:45 AM,39.2,37.4,93,29.59,10.0,South,9.2,17.3,N/A,,Overcast,180,2013-02-19 12:45:00
8:05 AM,41.0,37.4,87,29.59,10.0,South,10.4,20.7,N/A,,Overcast,190,2013-02-19 13:05:00
8:25 AM,41.0,37.4,87,29.59,10.0,SSW,8.1,19.6,N/A,,Overcast,210,2013-02-19 13:25:00
8:48 AM,38.5,36.5,93,29.61,5.0,WSW,13.8,26.5,0.03,Rain,Light Rain,250,2013-02-19 13:48:00
8:55 AM,37.8,36.1,94,29.62,7.0,WSW,15.0,19.6,0.04,Rain,Light Rain,240,2013-02-19 13:55:00
9:16 AM,35.4,34.9,98,29.63,7.0,WSW,15.0,19.6,N/A,Rain,Rain,250,2013-02-19 14:16:00
9:35 AM,34.0,34.2,100,29.63,2.5,WSW,15.0,19.6,0.01,Snow,Light Snow,250,2013-02-19 14:35:00
9:56 AM,33.4,33.6,100,29.64,10.0,WSW,15.0,24.2,0.01,,Overcast,240,2013-02-19 14:56:00
10:16 AM,33.3,33.3,100,29.65,10.0,WSW,12.7,18.4,N/A,,Overcast,250,2013-02-19 15:16:00
10:35 AM,33.4,33.6,100,29.65,10.0,WSW,16.1,24.2,N/A,,Overcast,250,2013-02-19 15:35:00
10:56 AM,-9999,-9999,N/A,29.66,7.0,WSW,18.4,27.6,N/A,,Overcast,240,2013-02-19 15:56:00
11:16 AM,32.0,31.6,99,29.67,10.0,WSW,13.8,20.7,N/A,,Overcast,250,2013-02-19 16:16:00
11:36 AM,31.1,27.3,86,29.68,10.0,WSW,19.6,31.1,N/A,,Overcast,250,2013-02-19 16:36:00
11:55 AM,30.7,25.9,82,29.68,10.0,West,18.4,23.0,N/A,,Overcast,260,2013-02-19 16:55:00
12:16 PM,30.2,25.3,82,29.69,10.0,WSW,20.7,28.8,N/A,,Overcast,250,2013-02-19 17:16:00
12:36 PM,29.8,23.9,79,29.69,10.0,WSW,18.4,29.9,N/A,,Overcast,250,2013-02-19 17:36:00
12:55 PM,28.2,23.2,81,29.70,10.0,West,17.3,29.9,N/A,,Overcast,260,2013-02-19 17:55:00
1:16 PM,28.2,22.6,80,29.70,10.0,WSW,17.3,29.9,N/A,,Overcast,250,2013-02-19 18:16:00
1:35 PM,28.8,22.1,76,29.70,7.0,WSW,18.4,24.2,N/A,Snow,Light Snow,250,2013-02-19 18:35:00
1:56 PM,28.4,22.3,78,29.70,2.0,SW,15.0,23.0,N/A,Snow,Light Snow,230,2013-02-19 18:56:00
2:15 PM,28.0,23.2,82,29.70,1.5,WSW,13.8,18.4,N/A,Snow,Light Snow,240,2013-02-19 19:15:00
2:35 PM,28.8,22.5,77,29.71,10.0,SW,10.4,19.6,N/A,Snow,Light Snow,230,2013-02-19 19:35:00
2:56 PM,28.0,21.2,76,29.72,3.0,WSW,18.4,34.5,N/A,Snow,Light Snow,240,2013-02-19 19:56:00
3:16 PM,27.5,18.3,68,29.74,10.0,WSW,21.9,33.4,N/A,Snow,Light Snow,250,2013-02-19 20:16:00
3:35 PM,27.3,18.5,69,29.74,10.0,WSW,20.7,28.8,N/A,Snow,Light Snow,250,2013-02-19 20:35:00
3:56 PM,27.5,18.5,69,29.74,10.0,WSW,15.0,29.9,N/A,,Overcast,250,2013-02-19 20:56:00
4:16 PM,27.5,19.0,71,29.75,10.0,WSW,15.0,25.3,N/A,Snow,Light Snow,250,2013-02-19 21:16:00
4:35 PM,27.3,18.5,69,29.75,4.0,WSW,21.9,36.8,N/A,Snow,Light Snow,250,2013-02-19 21:35:00
4:56 PM,27.0,18.5,70,29.77,4.0,WSW,15.0,28.8,N/A,Snow,Light Snow,250,2013-02-19 21:56:00
5:16 PM,26.1,19.8,77,29.78,1.5,WSW,24.2,31.1,N/A,Snow,Light Snow,240,2013-02-19 22:16:00
5:35 PM,25.2,17.1,71,29.80,4.0,WSW,19.6,28.8,N/A,Snow,Light Snow,240,2013-02-19 22:35:00
5:56 PM,24.1,18.9,80,29.81,1.5,WSW,10.4,21.9,N/A,Snow,Light Snow,240,2013-02-19 22:56:00
6:16 PM,24.4,17.4,75,29.81,4.0,WSW,20.7,33.4,N/A,Snow,Light Snow,250,2013-02-19 23:16:00
7:35 PM,21.6,14.0,73,29.87,5.0,West,18.4,28.8,N/A,Snow,Light Snow,260,2013-02-20 00:35:00
7:56 PM,21.6,13.6,72,29.87,10.0,West,12.7,24.2,N/A,Snow,Light Snow,270,2013-02-20 00:56:00
8:16 PM,21.2,14.4,75,29.87,7.0,West,13.8,19.6,N/A,Snow,Light Snow,260,2013-02-20 01:16:00
8:56 PM,20.5,12.9,73,29.88,4.0,West,24.2,34.5,N/A,Snow,Light Snow,260,2013-02-20 01:56:00
9:16 PM,20.1,13.3,75,29.89,4.0,West,13.8,26.5,N/A,Snow,Light Snow,260,2013-02-20 02:16:00
9:35 PM,19.6,12.9,75,29.89,3.0,West,24.2,31.1,N/A,Snow,Light Snow,270,2013-02-20 02:35:00
9:56 PM,19.4,12.6,75,29.90,4.0,West,23.0,31.1,N/A,Snow,Light Snow,270,2013-02-20 02:56:00
10:16 PM,18.5,11.7,75,29.90,10.0,West,19.6,25.3,N/A,Snow,Light Snow,270,2013-02-20 03:16:00
10:35 PM,18.3,12.2,77,29.91,4.0,West,18.4,-,N/A,Snow,Light Snow,260,2013-02-20 03:35:00
10:56 PM,18.0,11.5,76,29.91,7.0,WSW,15.0,21.9,N/A,Snow,Light Snow,250,2013-02-20 03:56:00
11:16 PM,18.0,10.8,73,29.91,7.0,West,15.0,21.9,N/A,Snow,Light Snow,260,2013-02-20 04:16:00
11:35 PM,17.6,10.9,75,29.92,5.0,West,15.0,21.9,N/A,Snow,Light Snow,260,2013-02-20 04:35:00
11:56 PM,17.4,11.1,76,29.92,5.0,WSW,10.4,19.6,N/A,Snow,Light Snow,250,2013-02-20 04:56:00